Location: Archamps
(46.1365°N, 6.1329°E)
Time: 06:42:00
(UTC+00:00)

CZ-4B DEB - Pass Details

Date: 28 January 2023
Orbit: 839 x 859 km, 99.1° (Epoch: 21 March)

Event Time Altitude Azimuth Distance (km) Brightness Sun altitude
Rises 17:18:36 0° 145° (SE) 3,382 7.2 -8.0°
Reaches altitude 10° 17:21:01 10° 140° (SE) 2,451 6.4 -8.4°
Maximum altitude 17:26:12 48° 68° (ENE) 1,096 4.4 -9.2°
Drops below altitude 10° 17:31:26 10° 356° (N) 2,470 6.5 -10.1°
Sets 17:33:52 0° 351° (N) 3,412 7.3 -10.5°
